Вернуться в каталог

STARLINK-31527

АктивенСвязьVLEO
NORAD 59018·PAYLOAD·🇺🇸 United States

Запущен Feb 23, 2024 с Vandenberg Space Force Base

Loading…

Ближайшие Пролёты (ближайшие 24 часа)

TLE

СвежийSource: CelesTrak SupGP

Эпоха: Sep 15, 2026, 03:34 UTC

1 59018C 24036W   26258.14909722 -.00027067  00000+0 -79951-3 0  2580
2 59018  53.1562 276.3926 0001337  86.6720 309.1707 15.34411012    15

Отслеживайте STARLINK-31527 в реальном времени с AllMySat

Download on the App Store